sat.trackr.live / text

‹ back to catalog

STARLINK-32638

NORAD 62424 · 2024-249R

PAYLOAD ACTIVE UNKNOWN

§ Identity

Operator
Country
US
Launch date
2024-12-23
Launch site
AFETR
Launch vehicle
Mass (kg)
RCS (m²)

Purposes: comms

External: N2YO · Heavens-Above · Gunter

§ Orbital elements

Epoch: 2026-05-25T00:34:17.465664Z

Period
94.27 min
Inclination
43.0020°
Eccentricity
0.0002412
Mean motion
15.27574778 rev/d
Perigee alt
481.4 km
Apogee alt
484.7 km
Semi-major
6,861.2 km
B*
6.5678e-4
RAAN
254.6101°
Arg perigee
297.0474°
Mean anomaly
63.0131°
Rev number
7,935

§ Raw data

STARLINK-326381 62424U 24249R   26145.02381326  .00017853  00000+0  65678-3 0  99902 62424  43.0020 254.6101 0002412 297.0474  63.0131 15.27574778 79351

JSON: /api/v1/satellites/62424 · /tle

For live sub-satellite position, see the globe view (requires WebGL).

§ Visibility from observer

Set your observer location to see the next 7 days of passes ≥ 10°. The values pass through the URL so the page stays shareable.

No JS? Fill the form by hand. The geolocation button needs JavaScript.